Home   Weather   Regina   Past weeks

Flag for Canada Past Weather in Regina, Saskatchewan, Canada — Yesterday and Last 2 Weeks

Now
12 °F

Partly sunny.


Feels Like: 1 °F
Forecast: 1 / 18 °F
Wind: 8 mph from Southeast

Location: Regina Weather Station

Current Time: Mar 1, 2017 at 1:55:09 pm

Latest Report: Mar 1, 2017 at 1:00 pm


Visibility: 12 mi

Pressure: 30.22 "Hg (28.03 "Hg at 577m altitude)

Humidity: 79%

Dew Point: 7 °F

Location of ReginaLocation

Past Weather in Regina — Graph

°F

Regina Temperature Yesterday

Maximum temperature yesterday: 16 °F (at 4:00 pm)
Minimum temperature yesterday: 1 °F (at 2:00 am)
Average temperature yesterday: 8 °F

High & Low Weather Summary for the Past Weeks

 TemperatureHumidityPressure
High45 °F (Feb 16, 2:00 pm)100% (Feb 18, 8:00 am)30.23 "Hg (Feb 18, 8:00 am)
Low-4 °F (Feb 27, 7:00 am)50% (Feb 26, 3:00 pm)29.26 "Hg (Feb 17, 5:00 am)
Average24 °F83%29.86 "Hg
* Reported Feb 14 12:00 pm — Mar 1 12:00 pm, Regina, Weather by CustomWeather, © 2017

Note: Actual official high and low records may vary slightly from our data, if they occured in-between our weather recording intervals... More about our weather records

Advertising

Regina Weather History for the Previous 24 Hours

Scroll right to see more
 ConditionsComfort  
Time TempWeatherWind HumidityBarometerVisibility
12:00 pm
Wed, Mar 1
10 °FPartly sunny.8 mph85%30.20 "Hg12 mi
11:00 am10 °FPartly sunny.5 mph92%30.20 "Hg10 mi
10:00 am7 °FPartly sunny.7 mph92%30.19 "Hg9 mi
9:00 am3 °FIce fog.5 mph85%30.19 "Hg3 mi
8:24 am1 °FIce fog.2 mph85%30.19 "Hg1 mi
7:50 am1 °FIce fog.3 mph85%30.19 "Hg1 mi
7:14 am1 °FIce fog.6 mph85%30.18 "Hg0 mi
6:44 am3 °FIce fog.2 mph92%30.16 "Hg0 mi
6:00 am5 °FIce fog.3 mph85%30.15 "Hg0 mi
5:00 am1 °FIce fog.No wind85%30.15 "Hg0 mi
4:35 am-2 °FIce fog.6 mph84%30.15 "Hg6 mi
3:41 am3 °FIce fog.5 mph85%30.14 "Hg0 mi
3:00 am7 °FPassing clouds.2 mph92%30.12 "Hg15 mi
2:20 am7 °FPassing clouds.No wind92%30.11 "Hg15 mi
2:00 am7 °FLight snow. Passing clouds.No wind85%30.10 "Hg15 mi
1:00 am9 °FLight snow. Passing clouds.3 mph92%30.09 "Hg15 mi
12:00 am10 °FLight snow. Passing clouds.2 mph92%30.07 "Hg15 mi
11:14 pm
Tue, Feb 28
10 °FLight snow. Passing clouds.No wind92%30.06 "Hg10 mi
11:00 pm9 °FPassing clouds.2 mph92%30.06 "Hg15 mi
10:00 pm10 °FPassing clouds.2 mph92%30.05 "Hg15 mi
9:00 pm10 °FPassing clouds.2 mph92%30.03 "Hg15 mi
8:00 pm10 °FPassing clouds.3 mph92%30.03 "Hg15 mi
7:00 pm12 °FPassing clouds.3 mph85%30.01 "Hg15 mi
6:00 pm14 °FPartly sunny.2 mph79%29.99 "Hg15 mi
5:00 pm16 °FPartly sunny.3 mph79%29.97 "Hg15 mi
4:00 pm16 °FScattered clouds.5 mph79%29.96 "Hg15 mi
3:00 pm14 °FPartly sunny.7 mph79%29.95 "Hg15 mi
2:39 pm14 °FBroken clouds.9 mph85%29.95 "Hg15 mi
2:00 pm14 °FLight snow. Overcast.10 mph79%29.95 "Hg3 mi
1:00 pm12 °FLight snow. Overcast.13 mph79%29.95 "Hg2 mi
Weather by CustomWeather, © 2017

See weather overviewHow to use our weather pages